Hazen, ND

6:10 PM CDT on March 27, 2017 (GMT -0500)
Mercer County Regional

Weather History for KHZE - February, 2014

Change the Weather History Date:

Thursday, February 6, 2014

  Actual Average (KN60) Record (KN60)
Temperature  
Mean Temperature -2 °F -  
Max Temperature 6 °F 23 °F 51 °F (2016)
Min Temperature -9 °F 3 °F -20 °F (2004)
Degree Days  
Heating Degree Days 66    
Moisture  
Dew Point -10 °F    
Average Humidity 63    
Maximum Humidity 77    
Minimum Humidity 48    
Precipitation  
Precipitation 0.00 in - - ()
Sea Level Pressure  
Sea Level Pressure 30.26 in    
Wind  
Wind Speed 12 mph (West)    
Max Wind Speed 23 mph    
Max Gust Speed 28 mph    
Visibility 10 miles    
Events Snow    
Averages and records for this station are not official NWS values.
T = Trace of Precipitation, MM = Missing Value Source: NWS Daily Summary

Daily Weather History Graph

Daily Weather History Graph

Search for Another Location

Airport or City:

Trip Planner

Search our weather history database for the weather conditions in past years. The results will help you decide how hot, cold, wet, or windy it might be!

Date:

Astronomy

Feb. 06, 2014 Rise Set
Actual Time 8:05 AM CST 5:56 PM CST
Civil Twilight 7:32 AM CST 6:28 PM CST
Nautical Twilight 6:56 AM CST 7:05 PM CST
Astronomical Twilight 6:20 AM CST 7:40 PM CST
Moon 11:28 AM CST (2/6) 1:23 AM CST (2/6)
Length of Visible Light 10h 55m
Length of Day
9h 51m
Waxing Crescent, 49% of the Moon is Illuminated
Feb 6
Waxing Crescent
Feb 6
First Quarter
Feb 14
Full
Feb 22
Last Quarter
Mar 1
New

Hourly Weather History & Observations

Time (CST) Temp. Windchill Dew Point Humidity Pressure Visibility Wind Dir Wind Speed Gust Speed Precip Events Conditions
12:15 AM -7.6 °F -20.6 °F -16.6 °F 65% 30.50 in 10.0 mi West 5.8 mph - N/A   Partly Cloudy
12:35 AM -9.4 °F -20.9 °F -16.6 °F 71% 30.49 in 10.0 mi West 4.6 mph - N/A   Scattered Clouds
12:55 AM -9.4 °F -20.9 °F -16.6 °F 71% 30.48 in 10.0 mi WSW 4.6 mph - N/A   Overcast
1:15 AM -9.4 °F -25.6 °F -16.6 °F 71% 30.47 in 10.0 mi WSW 8.1 mph - N/A   Mostly Cloudy
1:35 AM -7.6 °F -23.4 °F -16.6 °F 65% 30.46 in 8.0 mi WSW 8.1 mph - N/A   Scattered Clouds
1:55 AM -9.4 °F -25.6 °F -16.6 °F 71% 30.45 in 10.0 mi WSW 8.1 mph - N/A   Scattered Clouds
2:15 AM -7.6 °F -23.4 °F -14.8 °F 71% 30.44 in 10.0 mi WSW 8.1 mph - N/A   Mostly Cloudy
2:35 AM -7.6 °F -23.4 °F -13.0 °F 77% 30.43 in 10.0 mi WSW 8.1 mph - N/A   Mostly Cloudy
2:55 AM -7.6 °F -24.6 °F -13.0 °F 77% 30.42 in 10.0 mi WSW 9.2 mph - N/A   Mostly Cloudy
3:15 AM -5.8 °F -22.4 °F -13.0 °F 71% 30.42 in 10.0 mi West 9.2 mph - N/A   Scattered Clouds
3:35 AM -4.0 °F -22.1 °F -11.2 °F 71% 30.41 in 10.0 mi West 11.5 mph - N/A   Mostly Cloudy
3:55 AM -2.2 °F -20.7 °F -11.2 °F 66% 30.40 in 10.0 mi West 12.7 mph - N/A   Mostly Cloudy
4:15 AM -2.2 °F -23.5 °F -9.4 °F 71% 30.39 in 10.0 mi West 17.3 mph 20.7 mph N/A   Overcast
4:35 AM -0.4 °F -22.3 °F -9.4 °F 66% 30.38 in 10.0 mi West 19.6 mph 26.5 mph N/A   Overcast
4:55 AM -0.4 °F -19.9 °F -9.4 °F 66% 30.38 in 10.0 mi West 15.0 mph 19.6 mph N/A   Overcast
5:15 AM -0.4 °F -20.5 °F -9.4 °F 66% 30.38 in 10.0 mi West 16.1 mph 20.7 mph N/A   Overcast
5:35 AM -0.4 °F -20.5 °F -9.4 °F 66% 30.38 in 10.0 mi WNW 16.1 mph 25.3 mph N/A   Overcast
5:55 AM -0.4 °F -19.2 °F -7.6 °F 72% 30.38 in 10.0 mi WNW 13.8 mph 19.6 mph N/A   Overcast
6:15 AM -0.4 °F -17.6 °F -7.6 °F 72% 30.37 in 10.0 mi WNW 11.5 mph - N/A   Overcast
6:35 AM -0.4 °F -21.2 °F -9.4 °F 66% 30.36 in 10.0 mi WNW 17.3 mph 20.7 mph N/A Snow Light Snow
6:55 AM -0.4 °F -19.2 °F -9.4 °F 66% 30.35 in 10.0 mi WNW 13.8 mph - N/A   Overcast
7:15 AM -0.4 °F -19.9 °F -7.6 °F 72% 30.35 in 10.0 mi WNW 15.0 mph - N/A   Overcast
7:35 AM -0.4 °F -17.6 °F -9.4 °F 66% 30.35 in 10.0 mi WNW 11.5 mph - N/A   Overcast
7:55 AM -0.4 °F -17.6 °F -7.6 °F 72% 30.35 in 10.0 mi WNW 11.5 mph - N/A   Overcast
8:15 AM -0.4 °F -20.5 °F -7.6 °F 72% 30.34 in 5.0 mi WNW 16.1 mph - N/A Snow Light Snow
8:35 AM -0.4 °F -17.6 °F -7.6 °F 72% 30.34 in 9.0 mi West 11.5 mph - N/A   Overcast
8:55 AM -0.4 °F -19.2 °F -7.6 °F 72% 30.34 in 8.0 mi West 13.8 mph - N/A   Overcast
9:15 AM -0.4 °F -21.7 °F -9.4 °F 66% 30.34 in 10.0 mi West 18.4 mph - N/A Snow Light Snow
9:35 AM -0.4 °F -21.7 °F -9.4 °F 66% 30.33 in 10.0 mi West 18.4 mph - N/A Snow Light Snow
9:55 AM -0.4 °F -20.5 °F -7.6 °F 72% 30.33 in 10.0 mi West 16.1 mph 20.7 mph N/A   Overcast
10:15 AM -0.4 °F -20.5 °F -7.6 °F 72% 30.32 in 10.0 mi West 16.1 mph 23.0 mph N/A Snow Light Snow
10:35 AM -0.4 °F -20.5 °F -7.6 °F 72% 30.32 in 9.0 mi WNW 16.1 mph - N/A Snow Light Snow
10:55 AM -0.4 °F -21.7 °F -7.6 °F 72% 30.32 in 10.0 mi West 18.4 mph 23.0 mph N/A Snow Light Snow
11:15 AM 1.4 °F -19.4 °F -7.6 °F 66% 30.31 in 9.0 mi WNW 18.4 mph 21.9 mph N/A Snow Light Snow
11:35 AM 1.4 °F -18.8 °F -7.6 °F 66% 30.31 in 10.0 mi West 17.3 mph - N/A   Overcast
11:55 AM 1.4 °F -19.4 °F -7.6 °F 66% 30.31 in 10.0 mi West 18.4 mph - N/A   Overcast
12:15 PM 1.4 °F -18.8 °F -7.6 °F 66% 30.30 in 10.0 mi West 17.3 mph - N/A   Overcast
12:35 PM 3.2 °F -17.1 °F -7.6 °F 61% 30.29 in 10.0 mi West 18.4 mph 21.9 mph N/A   Overcast
12:55 PM 3.2 °F -13.9 °F -7.6 °F 61% 30.27 in 10.0 mi West 12.7 mph 25.3 mph N/A   Overcast
1:15 PM 5.0 °F -14.7 °F -7.6 °F 56% 30.26 in 10.0 mi West 18.4 mph - N/A   Overcast
1:35 PM 5.0 °F -14.2 °F -7.6 °F 56% 30.24 in 10.0 mi West 17.3 mph 25.3 mph N/A   Mostly Cloudy
1:55 PM 5.0 °F -13.0 °F -7.6 °F 56% 30.23 in 10.0 mi West 15.0 mph 23.0 mph N/A   Scattered Clouds
2:15 PM 5.0 °F -14.2 °F -7.6 °F 56% 30.22 in 10.0 mi West 17.3 mph 23.0 mph N/A   Scattered Clouds
2:35 PM 5.0 °F -15.2 °F -7.6 °F 56% 30.20 in 10.0 mi West 19.6 mph 24.2 mph N/A   Scattered Clouds
2:55 PM 5.0 °F -16.7 °F -7.6 °F 56% 30.19 in 10.0 mi West 23.0 mph - N/A   Clear
3:15 PM 6.8 °F -12.4 °F -7.6 °F 52% 30.19 in 10.0 mi West 18.4 mph 26.5 mph N/A   Clear
3:35 PM 6.8 °F -12.9 °F -9.4 °F 48% 30.18 in 10.0 mi WNW 19.6 mph 25.3 mph N/A   Clear
3:55 PM 6.8 °F -13.4 °F -7.6 °F 52% 30.18 in 10.0 mi West 20.7 mph 27.6 mph N/A   Clear
4:15 PM 5.0 °F -15.7 °F -9.4 °F 52% 30.17 in 10.0 mi West 20.7 mph 25.3 mph N/A   Clear
4:35 PM 6.8 °F -11.8 °F -7.6 °F 52% 30.16 in 10.0 mi West 17.3 mph - N/A   Clear
4:55 PM 5.0 °F -13.6 °F -9.4 °F 52% 30.14 in 10.0 mi West 16.1 mph 24.2 mph N/A   Clear
5:15 PM 5.0 °F -14.2 °F -9.4 °F 52% 30.14 in 10.0 mi West 17.3 mph - N/A   Clear
5:35 PM 5.0 °F -14.7 °F -9.4 °F 52% 30.13 in 10.0 mi West 18.4 mph - N/A   Clear
5:55 PM 3.2 °F -13.9 °F -9.4 °F 56% 30.13 in 10.0 mi West 12.7 mph - N/A   Clear
6:15 PM 3.2 °F -15.3 °F -9.4 °F 56% 30.13 in 10.0 mi West 15.0 mph 19.6 mph N/A   Clear
6:35 PM 1.4 °F -17.6 °F -9.4 °F 61% 30.13 in 10.0 mi West 15.0 mph - N/A   Clear
6:55 PM 1.4 °F -15.3 °F -9.4 °F 61% 30.12 in 10.0 mi West 11.5 mph - N/A   Clear
7:15 PM -0.4 °F -18.4 °F -9.4 °F 66% 30.12 in 10.0 mi West 12.7 mph - N/A   Clear
7:35 PM -0.4 °F -15.7 °F -11.2 °F 60% 30.11 in 10.0 mi WSW 9.2 mph - N/A   Clear
7:55 PM -0.4 °F -17.6 °F -11.2 °F 60% 30.10 in 10.0 mi WSW 11.5 mph - N/A   Clear
8:15 PM -0.4 °F -17.6 °F -11.2 °F 60% 30.10 in 10.0 mi WSW 11.5 mph - N/A   Clear
8:35 PM -0.4 °F -17.6 °F -11.2 °F 60% 30.09 in 10.0 mi WSW 11.5 mph - N/A   Clear
8:55 PM -2.2 °F -19.9 °F - N/A% 30.09 in 10.0 mi WSW 11.5 mph - N/A   Clear
9:15 PM -2.2 °F -19.9 °F -13.0 °F 60% 30.08 in 10.0 mi WSW 11.5 mph - N/A   Clear
9:35 PM -2.2 °F -20.7 °F -13.0 °F 60% 30.08 in 10.0 mi WSW 12.7 mph - N/A   Clear
9:55 PM -2.2 °F -20.7 °F -13.0 °F 60% 30.08 in 10.0 mi WSW 12.7 mph - N/A   Clear
10:15 PM -2.2 °F -19.9 °F -13.0 °F 60% 30.08 in 10.0 mi WSW 11.5 mph - N/A   Clear
10:35 PM -2.2 °F -19.9 °F -14.8 °F 55% 30.08 in 10.0 mi WSW 11.5 mph - N/A   Clear
10:55 PM -4.0 °F -22.1 °F -14.8 °F 60% 30.07 in 10.0 mi West 11.5 mph - N/A   Clear
11:15 PM -4.0 °F -21.2 °F -16.6 °F 55% 30.06 in 10.0 mi WSW 10.4 mph - N/A   Clear
11:35 PM -4.0 °F -22.1 °F -16.6 °F 55% 30.06 in 10.0 mi West 11.5 mph - N/A   Clear
11:55 PM -4.0 °F -22.1 °F -16.6 °F 55% 30.05 in 10.0 mi WSW 11.5 mph - N/A   Clear